| time (UTC) | temp C | wind direction | speed KPH | gust KPH | rain 1hr cm | rain 24hr cm | rain mn cm | humidity % | barometer mb |
| 20260504160233 | 20 | 76 | 1.6 | 3.2 | 0.00 | 0.00 | 0.00 | 46 | 1020.5 |
| 20260504150659 | 19 | 75 | 1.6 | 1.6 | 0.00 | 0.00 | 0.00 | 47 | 1020.7 |
| 20260504150155 | 18 | 155 | 1.6 | 3.2 | 0.00 | 0.00 | 0.00 | 48 | 1020.9 |
| 20260504141124 | 17 | 73 | 0.0 | 0.0 | 0.00 | 0.00 | 0.00 | 57 | 1021.1 |
| 20260504140621 | 17 | 47 | 1.6 | 1.6 | 0.00 | 0.00 | 0.00 | 57 | 1021.1 |
| 20260504140117 | 16 | 22 | 0.0 | 1.6 | 0.00 | 0.00 | 0.00 | 58 | 1021.1 |
| 20260504130545 | 13 | 147 | 0.0 | 0.0 | 0.00 | 0.00 | 0.00 | 73 | 1020.9 |
| 20260504110433 | 6 | 21 | 0.0 | 0.0 | 0.00 | 0.00 | 0.00 | 91 | 1020.7 |
| 20260504100349 | 6 | 24 | 0.0 | 0.0 | 0.00 | 0.00 | 0.00 | 92 | 1020.5 |
| 20260504081742 | 8 | 23 | 0.0 | 0.0 | 0.00 | 0.00 | 0.00 | 87 | 1020.2 |
| 20260504081239 | 8 | 13 | 0.0 | 0.0 | 0.00 | 0.00 | 0.00 | 86 | 1020.4 |
| 20260504080735 | 8 | 13 | 0.0 | 0.0 | 0.00 | 0.00 | 0.00 | 85 | 1020.0 |
| 20260504080232 | 8 | 13 | 0.0 | 0.0 | 0.00 | 0.00 | 0.00 | 85 | 1020.3 |
| 20260504070200 | 10 | 49 | 0.0 | 0.0 | 0.00 | 0.00 | 0.00 | 76 | 1020.6 |
| 20260504060120 | 10 | 176 | 0.0 | 0.0 | 0.00 | 0.00 | 0.00 | 74 | 1020.7 |
| 20260504050548 | 12 | 208 | 0.0 | 0.0 | 0.00 | 0.00 | 0.00 | 64 | 1020.8 |
| 20260504045542 | 12 | 64 | 0.0 | 0.0 | 0.00 | 0.00 | 0.00 | 60 | 1020.8 |
| 20260504045037 | 13 | 64 | 0.0 | 0.0 | 0.00 | 0.00 | 0.00 | 61 | 1020.6 |
| 20260504044535 | 13 | 148 | 0.0 | 0.0 | 0.00 | 0.00 | 0.00 | 59 | 1020.9 |
| 20260504044032 | 13 | 95 | 0.0 | 0.0 | 0.00 | 0.00 | 0.00 | 59 | 1020.9 |
| 20260504043529 | 13 | 133 | 0.0 | 0.0 | 0.00 | 0.00 | 0.00 | 59 | 1020.7 |
| 20260504043026 | 13 | 111 | 0.0 | 0.0 | 0.00 | 0.00 | 0.00 | 59 | 1020.8 |
| 20260504042523 | 13 | 199 | 0.0 | 0.0 | 0.00 | 0.00 | 0.00 | 58 | 1020.8 |
| 20260504042020 | 13 | 118 | 0.0 | 0.0 | 0.00 | 0.00 | 0.00 | 58 | 1020.5 |
| 20260504041516 | 13 | 93 | 0.0 | 0.0 | 0.00 | 0.00 | 0.00 | 58 | 1021.0 |
| 20260504041012 | 13 | 89 | 0.0 | 0.0 | 0.00 | 0.00 | 0.00 | 60 | 1021.1 |
| 20260504040510 | 12 | 108 | 0.0 | 1.6 | 0.00 | 0.00 | 0.00 | 63 | 1020.8 |
| 20260504040006 | 12 | 217 | 0.0 | 0.0 | 0.00 | 0.00 | 0.00 | 65 | 1020.8 |
| 20260504035503 | 12 | 256 | 0.0 | 0.0 | 0.00 | 0.00 | 0.00 | 65 | 1021.0 |
| 20260504034959 | 11 | 187 | 0.0 | 0.0 | 0.00 | 0.00 | 0.00 | 69 | 1021.0 |
| 20260504034457 | 11 | 104 | 0.0 | 0.0 | 0.00 | 0.00 | 0.00 | 70 | 1021.0 |
| 20260504033954 | 11 | 0 | 0.0 | 0.0 | 0.00 | 0.00 | 0.00 | 71 | 1021.0 |
| 20260504033452 | 11 | 359 | 0.0 | 0.0 | 0.00 | 0.00 | 0.00 | 71 | 1021.2 |
| 20260504032949 | 11 | 359 | 0.0 | 0.0 | 0.00 | 0.00 | 0.00 | 74 | 1021.1 |
| 20260504032446 | 11 | 359 | 0.0 | 0.0 | 0.00 | 0.00 | 0.00 | 73 | 1021.1 |
| 20260504031942 | 11 | 1 | 0.0 | 0.0 | 0.00 | 0.00 | 0.00 | 75 | 1021.1 |
| 20260504031439 | 11 | 59 | 0.0 | 0.0 | 0.00 | 0.00 | 0.00 | 76 | 1021.1 |
| 20260504030936 | 11 | 59 | 0.0 | 0.0 | 0.00 | 0.00 | 0.00 | 75 | 1021.2 |
| 20260504030433 | 11 | 59 | 0.0 | 0.0 | 0.00 | 0.00 | 0.00 | 74 | 1021.1 |
| 20260504025929 | 11 | 59 | 0.0 | 0.0 | 0.00 | 0.00 | 0.00 | 74 | 1021.0 |
| 20260504025426 | 11 | 59 | 0.0 | 0.0 | 0.00 | 0.00 | 0.00 | 72 | 1021.0 |
| 20260504024923 | 11 | 59 | 0.0 | 0.0 | 0.00 | 0.00 | 0.00 | 74 | 1021.1 |
| 20260504024420 | 11 | 59 | 0.0 | 0.0 | 0.00 | 0.00 | 0.00 | 72 | 1020.9 |
| 20260504023917 | 11 | 59 | 0.0 | 0.0 | 0.00 | 0.00 | 0.00 | 71 | 1021.0 |
| 20260504023413 | 11 | 59 | 0.0 | 0.0 | 0.00 | 0.00 | 0.00 | 71 | 1020.9 |
| 20260504022909 | 12 | 59 | 0.0 | 0.0 | 0.00 | 0.00 | 0.00 | 70 | 1020.6 |
| 20260504022406 | 12 | 59 | 0.0 | 0.0 | 0.00 | 0.00 | 0.00 | 70 | 1021.0 |
| 20260504021902 | 12 | 59 | 0.0 | 0.0 | 0.00 | 0.00 | 0.00 | 69 | 1020.8 |
| 20260504021400 | 12 | 59 | 0.0 | 0.0 | 0.00 | 0.00 | 0.00 | 68 | 1020.7 |
| 20260504020857 | 12 | 59 | 0.0 | 0.0 | 0.00 | 0.00 | 0.00 | 67 | 1020.7 |
| 20260504020353 | 12 | 59 | 0.0 | 0.0 | 0.00 | 0.00 | 0.00 | 67 | 1020.7 |
| 20260504015849 | 13 | 59 | 0.0 | 0.0 | 0.00 | 0.00 | 0.00 | 66 | 1020.6 |
| 20260504015346 | 13 | 59 | 0.0 | 0.0 | 0.00 | 0.00 | 0.00 | 65 | 1020.6 |
| 20260504014842 | 13 | 59 | 0.0 | 0.0 | 0.00 | 0.00 | 0.00 | 63 | 1020.5 |
| 20260504014338 | 13 | 59 | 0.0 | 0.0 | 0.00 | 0.00 | 0.00 | 62 | 1020.3 |
| 20260504013836 | 13 | 59 | 0.0 | 0.0 | 0.00 | 0.00 | 0.00 | 61 | 1020.3 |
| 20260504013333 | 13 | 59 | 0.0 | 0.0 | 0.00 | 0.00 | 0.00 | 60 | 1020.1 |
| 20260504012830 | 14 | 59 | 0.0 | 0.0 | 0.00 | 0.00 | 0.00 | 58 | 1020.1 |
| 20260504012328 | 15 | 59 | 0.0 | 0.0 | 0.00 | 0.00 | 0.00 | 56 | 1020.1 |
| 20260504011825 | 15 | 59 | 0.0 | 0.0 | 0.00 | 0.00 | 0.00 | 53 | 1020.1 |
| 20260504011321 | 15 | 59 | 0.0 | 0.0 | 0.00 | 0.00 | 0.00 | 52 | 1020.2 |
| 20260504010817 | 15 | 47 | 0.0 | 0.0 | 0.00 | 0.00 | 0.00 | 50 | 1020.3 |
| 20260504010313 | 15 | 64 | 0.0 | 0.0 | 0.00 | 0.00 | 0.00 | 49 | 1020.3 |
| 20260504005810 | 16 | 71 | 0.0 | 0.0 | 0.00 | 0.00 | 0.00 | 48 | 1020.0 |
| 20260504005307 | 16 | 99 | 0.0 | 0.0 | 0.00 | 0.00 | 0.00 | 49 | 1019.9 |
| 20260504004804 | 16 | 155 | 0.0 | 0.0 | 0.00 | 0.00 | 0.00 | 48 | 1019.8 |
| 20260504004302 | 16 | 105 | 0.0 | 0.0 | 0.00 | 0.00 | 0.00 | 47 | 1019.6 |
| 20260504003758 | 16 | 153 | 0.0 | 0.0 | 0.00 | 0.00 | 0.00 | 47 | 1019.5 |
| 20260504003255 | 16 | 193 | 0.0 | 1.6 | 0.00 | 0.00 | 0.00 | 47 | 1019.7 |
| 20260504002751 | 17 | 169 | 0.0 | 0.0 | 0.00 | 0.00 | 0.00 | 45 | 1019.8 |
| 20260504002249 | 17 | 141 | 0.0 | 1.6 | 0.00 | 0.00 | 0.00 | 44 | 1019.6 |
| 20260504001746 | 17 | 112 | 1.6 | 1.6 | 0.00 | 0.00 | 0.00 | 42 | 1019.6 |
| 20260504001243 | 17 | 226 | 0.0 | 0.0 | 0.00 | 0.00 | 0.00 | 43 | 1019.6 |
| 20260504000740 | 17 | 189 | 0.0 | 1.6 | 0.00 | 0.00 | 0.00 | 41 | 1019.5 |
| 20260504000237 | 17 | 282 | 1.6 | 1.6 | 0.00 | 0.00 | 0.00 | 41 | 1019.6 |
| 20260503235735 | 18 | 184 | 1.6 | 3.2 | 0.00 | 0.00 | 0.00 | 40 | 1019.5 |
| 20260503235232 | 18 | 136 | 0.0 | 0.0 | 0.00 | 0.00 | 0.00 | 39 | 1019.4 |
| 20260503234730 | 18 | 337 | 0.0 | 1.6 | 0.00 | 0.00 | 0.00 | 38 | 1019.4 |
| 20260503234228 | 18 | 84 | 1.6 | 1.6 | 0.00 | 0.00 | 0.00 | 37 | 1019.4 |
| 20260503233725 | 18 | 215 | 1.6 | 1.6 | 0.00 | 0.00 | 0.00 | 37 | 1019.6 |
| 20260503233220 | 18 | 139 | 1.6 | 3.2 | 0.00 | 0.00 | 0.00 | 37 | 1019.6 |
| 20260503232717 | 18 | 221 | 1.6 | 1.6 | 0.00 | 0.00 | 0.00 | 37 | 1019.5 |
| 20260503232214 | 18 | 55 | 0.0 | 0.0 | 0.00 | 0.00 | 0.00 | 36 | 1019.4 |
| 20260503231713 | 19 | 23 | 0.0 | 1.6 | 0.00 | 0.00 | 0.00 | 36 | 1019.5 |
| 20260503231209 | 19 | 109 | 1.6 | 3.2 | 0.00 | 0.00 | 0.00 | 36 | 1019.7 |
| 20260503230705 | 19 | 66 | 0.0 | 0.0 | 0.00 | 0.00 | 0.00 | 35 | 1019.4 |
| 20260503230202 | 19 | 148 | 0.0 | 1.6 | 0.00 | 0.00 | 0.00 | 36 | 1019.6 |
| 20260503225659 | 19 | 91 | 1.6 | 1.6 | 0.00 | 0.00 | 0.00 | 35 | 1019.5 |
| 20260503225154 | 20 | 55 | 0.0 | 0.0 | 0.00 | 0.00 | 0.00 | 35 | 1019.5 |
| 20260503224651 | 19 | 103 | 1.6 | 1.6 | 0.00 | 0.00 | 0.00 | 35 | 1019.5 |
| 20260503224149 | 20 | 72 | 3.2 | 4.8 | 0.00 | 0.00 | 0.00 | 34 | 1019.8 |
| 20260503223647 | 20 | 129 | 1.6 | 1.6 | 0.00 | 0.00 | 0.00 | 34 | 1019.6 |
| 20260503223143 | 20 | 50 | 1.6 | 1.6 | 0.00 | 0.00 | 0.00 | 34 | 1019.5 |
| 20260503222640 | 20 | 62 | 0.0 | 0.0 | 0.00 | 0.00 | 0.00 | 34 | 1019.7 |
| 20260503222138 | 20 | 91 | 1.6 | 1.6 | 0.00 | 0.00 | 0.00 | 33 | 1019.4 |
| 20260503221636 | 20 | 197 | 4.8 | 8.0 | 0.00 | 0.00 | 0.00 | 33 | 1019.6 |
| 20260503221133 | 20 | 141 | 0.0 | 1.6 | 0.00 | 0.00 | 0.00 | 32 | 1019.6 |
| 20260503220630 | 20 | 38 | 1.6 | 1.6 | 0.00 | 0.00 | 0.00 | 33 | 1019.4 |
| 20260503220127 | 20 | 82 | 0.0 | 1.6 | 0.00 | 0.00 | 0.00 | 34 | 1019.4 |
| 20260503215624 | 20 | 159 | 4.8 | 4.8 | 0.00 | 0.00 | 0.00 | 35 | 1019.7 |
| 20260503215120 | 20 | 70 | 0.0 | 1.6 | 0.00 | 0.00 | 0.00 | 35 | 1019.5 |
| 20260503214619 | 20 | 98 | 4.8 | 4.8 | 0.00 | 0.00 | 0.00 | 34 | 1019.6 |
| 20260503214115 | 20 | 358 | 3.2 | 3.2 | 0.00 | 0.00 | 0.00 | 33 | 1019.6 |
| 20260503213614 | 20 | 118 | 1.6 | 3.2 | 0.00 | 0.00 | 0.00 | 37 | 1019.8 |
| 20260503213110 | 21 | 83 | 1.6 | 1.6 | 0.00 | 0.00 | 0.00 | 34 | 1019.8 |
| 20260503212608 | 21 | 151 | 3.2 | 4.8 | 0.00 | 0.00 | 0.00 | 34 | 1019.7 |
| 20260503212105 | 21 | 258 | 4.8 | 8.0 | 0.00 | 0.00 | 0.00 | 33 | 1019.8 |
| 20260503211603 | 21 | 134 | 1.6 | 1.6 | 0.00 | 0.00 | 0.00 | 33 | 1020.0 |
| 20260503211057 | 21 | 86 | 3.2 | 3.2 | 0.00 | 0.00 | 0.00 | 33 | 1020.0 |
| 20260503210554 | 21 | 84 | 3.2 | 3.2 | 0.00 | 0.00 | 0.00 | 34 | 1019.8 |
| 20260503210050 | 21 | 293 | 0.0 | 1.6 | 0.00 | 0.00 | 0.00 | 33 | 1020.0 |
| 20260503205547 | 22 | 111 | 0.0 | 1.6 | 0.00 | 0.00 | 0.00 | 34 | 1019.7 |
| 20260503205044 | 22 | 67 | 1.6 | 1.6 | 0.00 | 0.00 | 0.00 | 33 | 1020.1 |
| 20260503204541 | 22 | 61 | 0.0 | 1.6 | 0.00 | 0.00 | 0.00 | 33 | 1020.0 |
| 20260503204038 | 21 | 110 | 1.6 | 3.2 | 0.00 | 0.00 | 0.00 | 32 | 1020.2 |
| 20260503203535 | 21 | 32 | 1.6 | 3.2 | 0.00 | 0.00 | 0.00 | 30 | 1020.2 |
| 20260503203032 | 21 | 12 | 1.6 | 1.6 | 0.00 | 0.00 | 0.00 | 33 | 1020.3 |
| 20260503202530 | 21 | 149 | 3.2 | 3.2 | 0.00 | 0.00 | 0.00 | 36 | 1020.3 |
| 20260503202027 | 21 | 327 | 0.0 | 1.6 | 0.00 | 0.00 | 0.00 | 35 | 1020.3 |
| 20260503201525 | 21 | 103 | 1.6 | 3.2 | 0.00 | 0.00 | 0.00 | 34 | 1020.6 |
| 20260503201022 | 21 | 99 | 1.6 | 3.2 | 0.00 | 0.00 | 0.00 | 32 | 1020.6 |
| 20260503200518 | 21 | 173 | 3.2 | 3.2 | 0.00 | 0.00 | 0.00 | 34 | 1020.7 |
| 20260503200015 | 21 | 291 | 6.4 | 9.7 | 0.00 | 0.00 | 0.00 | 33 | 1020.6 |
| 20260503195513 | 20 | 257 | 4.8 | 4.8 | 0.00 | 0.00 | 0.00 | 33 | 1020.8 |
| 20260503195009 | 20 | 233 | 3.2 | 4.8 | 0.00 | 0.00 | 0.00 | 38 | 1021.0 |
| 20260503194507 | 21 | 191 | 1.6 | 3.2 | 0.00 | 0.00 | 0.00 | 38 | 1021.1 |
| 20260503194006 | 21 | 174 | 3.2 | 3.2 | 0.00 | 0.00 | 0.00 | 38 | 1020.9 |
| 20260503193503 | 21 | 227 | 3.2 | 3.2 | 0.00 | 0.00 | 0.00 | 36 | 1021.2 |
| 20260503192958 | 21 | 232 | 3.2 | 3.2 | 0.00 | 0.00 | 0.00 | 39 | 1021.4 |
| 20260503192455 | 20 | 34 | 1.6 | 1.6 | 0.00 | 0.00 | 0.00 | 36 | 1021.5 |
| 20260503191950 | 21 | 169 | 1.6 | 3.2 | 0.00 | 0.00 | 0.00 | 38 | 1021.8 |
| 20260503191448 | 21 | 191 | 8.0 | 9.7 | 0.00 | 0.00 | 0.00 | 37 | 1021.8 |
| 20260503190944 | 20 | 32 | 1.6 | 3.2 | 0.00 | 0.00 | 0.00 | 38 | 1021.7 |
| 20260503190442 | 20 | 236 | 4.8 | 8.0 | 0.00 | 0.00 | 0.00 | 37 | 1021.7 |
| 20260503185939 | 20 | 260 | 4.8 | 8.0 | 0.00 | 0.00 | 0.00 | 36 | 1022.0 |
| 20260503185435 | 21 | 190 | 3.2 | 3.2 | 0.00 | 0.00 | 0.00 | 36 | 1021.9 |
| 20260503184934 | 20 | 45 | 1.6 | 1.6 | 0.00 | 0.00 | 0.00 | 37 | 1021.8 |
| 20260503184431 | 20 | 216 | 3.2 | 4.8 | 0.00 | 0.00 | 0.00 | 36 | 1021.9 |
| 20260503183927 | 20 | 65 | 1.6 | 1.6 | 0.00 | 0.00 | 0.00 | 38 | 1021.9 |
| 20260503183424 | 20 | 259 | 3.2 | 4.8 | 0.00 | 0.00 | 0.00 | 40 | 1022.1 |
| 20260503182921 | 20 | 58 | 1.6 | 1.6 | 0.00 | 0.00 | 0.00 | 42 | 1022.0 |
| 20260503182420 | 20 | 17 | 0.0 | 0.0 | 0.00 | 0.00 | 0.00 | 38 | 1022.2 |
| 20260503181917 | 20 | 254 | 4.8 | 8.0 | 0.00 | 0.00 | 0.00 | 40 | 1022.3 |
| 20260503181414 | 20 | 56 | 0.0 | 0.0 | 0.00 | 0.00 | 0.00 | 40 | 1022.2 |
| 20260503180910 | 20 | 211 | 1.6 | 3.2 | 0.00 | 0.00 | 0.00 | 40 | 1022.3 |
| 20260503180408 | 20 | 100 | 4.8 | 4.8 | 0.00 | 0.00 | 0.00 | 37 | 1022.4 |
| 20260503175904 | 18 | 276 | 1.6 | 1.6 | 0.00 | 0.00 | 0.00 | 39 | 1022.4 |
| 20260503175403 | 18 | 242 | 1.6 | 3.2 | 0.00 | 0.00 | 0.00 | 39 | 1022.3 |
| 20260503174858 | 19 | 166 | 3.2 | 3.2 | 0.00 | 0.00 | 0.00 | 39 | 1022.5 |
| 20260503174356 | 18 | 107 | 0.0 | 1.6 | 0.00 | 0.00 | 0.00 | 40 | 1022.3 |
| 20260503173851 | 19 | 55 | 0.0 | 0.0 | 0.00 | 0.00 | 0.00 | 39 | 1022.4 |
| 20260503173348 | 18 | 35 | 0.0 | 0.0 | 0.00 | 0.00 | 0.00 | 37 | 1022.6 |
| 20260503172844 | 19 | 39 | 0.0 | 0.0 | 0.00 | 0.00 | 0.00 | 36 | 1022.7 |
| 20260503172342 | 19 | 143 | 1.6 | 1.6 | 0.00 | 0.00 | 0.00 | 38 | 1022.5 |
| 20260503171838 | 18 | 61 | 1.6 | 3.2 | 0.00 | 0.00 | 0.00 | 37 | 1022.9 |
| 20260503171335 | 18 | 213 | 1.6 | 3.2 | 0.00 | 0.00 | 0.00 | 37 | 1022.5 |
| 20260503170832 | 18 | 72 | 1.6 | 1.6 | 0.00 | 0.00 | 0.00 | 38 | 1022.6 |
| 20260503170328 | 18 | 75 | 0.0 | 1.6 | 0.00 | 0.00 | 0.00 | 38 | 1023.1 |